Regional Weather Roundup
Issued by NWS Lake Charles, LA

Current Version | Previous Version | Text Only | Print | Product List | Glossary On
Versions: 1 2 3 4 5 6 7 8 9 10 11 12 13 14 15 16 17 18 19 20 21 22 23 24 25 26 27
000
ASUS44 KLCH 280210
RWRLCH
REGIONAL WEATHER ROUNDUP
NATIONAL WEATHER SERVICE LAKE CHARLES LA
900 PM CDT SAT MAY 27 2017

Note: "fair" indicates few or no clouds below 12,000 feet with no
significant weather and/or obstructions to visibility.


ACROSS SOUTHEAST TEXAS

CITY           SKY/WX    TMP DP  RH WIND       PRES   REMARKS
BEAUMONT       PTCLDY    79  75  87 S9        29.90S
BEAUMONT CITY  FAIR      80  75  85 MISG      29.91S
ORANGE         CLOUDY    80  77  91 S8        29.92S
JASPER           N/A     81  75  82 S6        29.90F
$$

ACROSS CENTRAL LOUISIANA

CITY           SKY/WX    TMP DP  RH WIND       PRES   REMARKS
LEESVILLE      PTCLDY    79  74  84 S10       29.89R
FULLERTON      FAIR      80  74  81 VRB5      29.88R
ALEXANDRIA INT CLEAR     80  73  79 S8        29.87F
ESLER FIELD    CLEAR     79  75  87 S6        29.89F
DERIDDER       FAIR      80  76  90 S8        29.92S
OAKDALE        PTCLDY    79  74  85 S5        29.92R
OPELOUSAS      FAIR      79  73  83 S7        29.93R
$$

ACROSS SOUTHWEST AND SOUTH CENTRAL LOUISIANA

CITY           SKY/WX    TMP DP  RH WIND       PRES   REMARKS
SULPHUR        CLOUDY    80  78  92 S13       29.92F
LAKE CHARLES   CLOUDY    80  76  87 S9        29.92S
CHENNAULT INT  CLOUDY    79  75  89 S7        29.92F
CAMERON PHI    CLOUDY    81  79  94 SE14G21   29.91F FOG
DEQUINCY       FAIR      77  74  89 SE5       29.91S
JENNINGS       FAIR      79  75  89 S6        29.92S
LAFAYETTE      PTCLDY    79  77  94 S8        29.93S
NEW IBERIA     CLOUDY    81  76  84 S9        29.95S
ABBEVILLE      CLOUDY    81  81 100 SE10      29.94S
PATTERSON      CLOUDY    80  77  90 S8        29.96S
SALT POINT       N/A     80  77  90 VRB3      29.94S
$$

SELECTED SITES ACROSS THE REGION

CITY           SKY/WX    TMP DP  RH WIND       PRES   REMARKS
HOUSTON BUSH   PTCLDY    82  73  74 S10       29.87R
HOUSTON HOBBY  MOCLDY    80  75  84 SE10      29.88R
GALVESTON      CLOUDY    83  79  88 SE15      29.90S
COLLEGE STAT   CLEAR     83  74  74 S13       29.84R
CONROE         CLEAR     81  73  76 S15       29.86S
HUNTSVILLE     CLEAR     85  70  60 S8        29.85R
LUFKIN         CLEAR     79  73  82 S10       29.84S
SHREVEPORT     CLEAR     82  74  76 S8        29.81F
MONROE         CLEAR     82  74  76 S7        29.85F
NATCHEZ MS     CLEAR     80  73  79 S10       29.92S
BATON ROUGE    CLEAR     80  73  79 S7        29.94R
N.O. INTL ARPT PTCLDY    81  77  88 S20G26    29.96S
SLIDELL        PTCLDY    82  76  81 S10       29.95S
$$

MARINE REPORTS

STATION/POSITION TIME  SKY/WX   TEMP    WIND        PRES    VSBY
                                AIR SEA DIR/SP/G
                 (UTC)          (F)     (DEG/KT/KT) (MB)    (MI)
BUOY 30 S HIGH I 0050            80 80  140/ 10/ 12 1012.4
WVE H/P(F/S)=  3/ 7

SEA RIM ST PARK  0100            80     150/ 11/ 13 1013.4F
PORT ARTHUR      0136            80 80  160/  6/ 11 1012.9F
SABINE PASS N    0136            80 83  150/ 11/ 14 1014.2F
TEXAS POINT      NOT AVBL
CALCASIEU PASS   0136            80 81  170/ 12/ 15   N/A
LK CHARLES BEACH 0136            81 77              1013.4F
MARSH ISLAND     0100            80                   N/A
FRESH WATER LOCK 0136            80 82  140/ 12/ 16 1013.8S
AMERADA PASS     0136            80 78  140/  6/ 11 1014.1F
$$




USA.gov is the U.S. government's official web portal to all federal, state and local government web resources and services.